Regional Weather Roundup
Issued by NWS

Home | Current Version | Previous Version | Graphics & Text | Print | Product List | Glossary On
Versions: 1 2 3 4 5 6 7 8 9 10 11 12 13 14 15 16 17 18 19 20 21 22 23 24 25 26 27 28 29 30 31 32 33 34 35 36 37 38 39 40 41 42 43 44 45 46 47 48 49
000
ASUS43 KDMX 291707
RWRIA

WEATHER ROUNDUP FOR IOWA
NATIONAL WEATHER SERVICE DES MOINES IA
1200 PM CDT MON SEP 29 2014

NOTE: "FAIR" INDICATES FEW OR NO CLOUDS BELOW 12,000 FEET WITH NO
SIGNIFICANT WEATHER AND/OR OBSTRUCTIONS TO VISIBILITY.

* - THESE STATIONS ARE NOT NWS STATIONS...THUS NOT UNDER NWS
QUALITY CONTROL.  THEY ALSO DO NOT REPORT WEATHER SUCH
AS PRECIPITATION OR FOG.

IAZ001>003-012>014-020>022-031>034-043>046-291800-
   NORTHWEST IOWA

CITY           SKY/WX    TMP DP  RH WIND       PRES   REMARKS
CARROLL *      MOSUNNY   75  63  64 CALM      30.06F
CHEROKEE *     CLOUDY    63  61  94 N7        30.08S
DENISON *      MOSUNNY   77  59  53 CALM      30.04F
LE MARS *      MOSUNNY   66  61  82 NE6       30.08S
ORANGE CITY *  CLOUDY    63  59  88 NE7       30.09S
SHELDON *      CLOUDY    61  59  94 NE9       30.09S
SIOUX CITY     CLOUDY    74  63  68 VRB5      30.06F
SPENCER        CLOUDY    63  58  83 N8        30.10S
STORM LAKE *   SUNNY     64  59  82 NE7       30.09S
$$

IAZ055>058-069>071-079>083-090>094-291800-
   SOUTHWEST IOWA

CITY           SKY/WX    TMP DP  RH WIND       PRES   REMARKS
ATLANTIC *     MOSUNNY   77  59  53 W5        30.06F
AUDUBON *      SUNNY     81  55  41 SW5       30.07F HX  80
CLARINDA *     SUNNY     79  59  50 VRB5      30.09F HX  80
COUNCIL BLFS * SUNNY     77  61  57 S6        30.07F
CRESTON *      PTSUNNY   77  61  57 W8        30.09F
HARLAN  *      SUNNY     79  61  53 CALM      30.09F HX  80
LAMONI         SUNNY     79  60  52 W7        30.08F HX  80
RED OAK *      MOSUNNY   79  57  47 CALM      30.07F HX  80
SHENANDOAH *   SUNNY     79  61  53 SW7       30.08F HX  80
$$

IAZ047>049-059>061-072>074-084-291800-
   CENTRAL IOWA

CITY           SKY/WX    TMP DP  RH WIND       PRES   REMARKS
AMES           PTSUNNY   79  60  52 NW5       30.05F HX  80
ANKENY *       MOSUNNY   77  63  61 W5        30.05F
CHARITON *     MOSUNNY   79  59  50 W8        30.07F HX  80
DES MOINES     PTSUNNY   79  58  48 W7        30.05F HX  80
GRINNELL*      MOSUNNY   79  57  47 SW8       30.06F HX  80
KNOXVILLE *    SUNNY     79  57  47 W9        30.06S HX  80
PELLA *        SUNNY     79  63  57 W5        30.08S HX  80
PERRY *        PTSUNNY   75  59  57 W3        30.06F
$$

IAZ004>006-015-016-023>025-035-036-291800-
   NORTH CENTRAL IOWA

CITY           SKY/WX    TMP DP  RH WIND       PRES   REMARKS
ALGONA *       CLOUDY    63  61  94 N7        30.08F
CLARION *      SUNNY     72  61  68 N7G14     30.06S
ESTHERVILLE    CLOUDY    60  59  96 N7        30.10R
FORT DODGE *   MOSUNNY   68  61  77 NE3       30.08S
MASON CITY     MOSUNNY   66  60  81 VRB5      30.08F
FOREST CITY *  CLOUDY    63  63 100 N7        30.08S FOG
IOWA FALLS *     N/A     73  59  60 W5        30.06F
$$

IAZ007>011-017>019-026>030-037>042-050>054-066-291800-
   NORTHEAST IOWA

CITY           SKY/WX    TMP DP  RH WIND       PRES   REMARKS
CEDAR RAPIDS   SUNNY     79  59  50 SW9       30.04F HX  80
CHARLES CITY * PTSUNNY   73  59  60 W5        30.05S
CLINTON *      SUNNY     79  59  50 W8        30.06F HX  80
DECORAH *      SUNNY     73  59  60 VRB6      30.03S
MONTICELLO *   SUNNY     81  59  47 VRB7      30.03F HX  81
OELWEIN *      SUNNY     77  59  53 VRB7      30.04F
WATERLOO       SUNNY     77  60  55 SW5       30.02F
$$

IAZ064-065-067-068-078-291800-
   EAST CENTRAL IOWA

CITY           SKY/WX    TMP DP  RH WIND       PRES   REMARKS
IOWA CITY      SUNNY     79  60  52 W7        30.05F HX  80
MT. PLEASANT * SUNNY     81  55  41 W7        30.06F HX  80
MUSCATINE *    SUNNY     81  59  47 VRB6      30.05F HX  81
QUAD CITIES    SUNNY     80  61  52 NW7       30.04F HX  81
$$

IAZ062-063-075>077-085>089-095>099-291800-
   SOUTHEAST IOWA

CITY           SKY/WX    TMP DP  RH WIND       PRES   REMARKS
BURLINGTON     SUNNY     80  61  52 VRB3      30.05F HX  81
FAIRFIELD *    SUNNY     79  57  47 VRB6      30.06F HAZE    HX  80
FORT MADISON * SUNNY     82  57  42 CALM      30.06F HX  82
KEOKUK *       SUNNY     79  61  53 CALM      30.05F HX  80
OSKALOOSA *      N/A     81  59  47 W3        30.06F HX  81
CENTERVILLE *  SUNNY     81  59  47 SW6       30.08F HX  81
OTTUMWA        SUNNY     78  61  55 VRB6      30.04F HX  80
WASHINGTON *   SUNNY     81  59  47 W6        30.06S HX  81
$$

ABBREVIATIONS USED IN REMARKS
   TC - TEMPERATURES IN CELSIUS
  WCI - WIND CHILL INDEX
   HX - HEAT INDEX
  VSB - VISIBILITY
$$



USA.gov is the U.S. government's official web portal to all federal, state and local government web resources and services.